E25WPV-13 Weather Reports


time (UTC)temp
C
wind
direction
speed
KPH
gust
KPH
rain 1hr
cm
rain 24hr
cm
rain mn
cm
humidity
%
barometer
mb
20260901044246 -17 259 3.2 9.7 0.00 0.00 0.20 74 1016.2
20260901043926 -17 293 6.4 9.7 0.00 0.00 0.20 73 1016.2
20260901043605 -17 271 3.2 6.4 0.00 0.00 0.20 75 1016.0
20260901043246 -17 280 11.3 19.3 0.00 0.00 0.20 73 1016.3
20260901042926 -17 166 11.3 14.5 0.00 0.00 0.20 73 1016.1
20260901042606 -17 217 11.3 17.7 0.00 0.00 0.20 72 1016.3
20260901041927 -17 224 6.4 11.3 0.00 0.00 0.20 73 1016.4
20260901041606 -17 230 9.7 12.9 0.00 0.00 0.20 74 1016.3
20260901041246 -17 173 9.7 12.9 0.00 0.00 0.20 73 1016.4
20260901040926 -17 255 4.8 8.0 0.00 0.00 0.20 73 1016.3
20260901040605 -17 251 6.4 9.7 0.00 0.00 0.20 72 1016.3
20260901040246 -17 226 3.2 6.4 0.00 0.00 0.20 74 1016.5
20260901035925 -17 248 8.0 9.7 0.00 0.00 0.20 74 1016.6
20260901035605 -17 209 16.1 17.7 0.00 0.00 0.20 74 1016.5
20260901034926 -17 237 11.3 19.3 0.00 0.00 0.20 73 1016.7
20260901034605 -17 240 4.8 8.0 0.00 0.00 0.20 75 1016.5
20260901034245 -17 193 4.8 9.7 0.00 0.00 0.20 74 1016.5
20260901033925 -17 223 3.2 6.4 0.00 0.00 0.20 76 1016.5
20260901033604 -17 177 4.8 12.9 0.00 0.00 0.20 75 1016.7
20260901033244 -17 220 9.7 16.1 0.00 0.00 0.20 74 1016.7
20260901032924 -17 180 4.8 6.4 0.00 0.00 0.20 76 1016.7
20260901032604 -17 196 11.3 17.7 0.00 0.00 0.20 75 1016.8
20260901031925 -17 226 12.9 17.7 0.00 0.00 0.20 75 1016.7
20260901031604 -17 233 9.7 14.5 0.00 0.00 0.20 76 1016.6
20260901031244 -17 230 6.4 11.3 0.00 0.00 0.20 77 1016.5
20260901030924 -17 266 8.0 11.3 0.00 0.00 0.20 75 1016.8
20260901030604 -17 228 3.2 6.4 0.00 0.00 0.20 77 1016.6
20260901030244 -17 184 4.8 6.4 0.00 0.00 0.20 78 1016.8
20260901025923 -17 0 0.0 0.0 0.00 0.00 0.00 14.5
20260901025603 -17 357 8.0 12.9 0.00 0.00 0.20 75 1016.5
20260901024924 -17 229 4.8 8.0 0.00 0.00 0.20 76 1016.6
20260901024604 -17 205 8.0 11.3 0.00 0.00 0.20 75 1016.8
20260901024244 -17 207 8.0 11.3 0.00 0.00 0.20 76 1016.5
20260901023924 -17 229 8.0 9.7 0.00 0.00 0.20 75 1016.5
20260901023603 -17 254 8.0 12.9 0.00 0.00 0.20 76 1016.6
20260901023243 -17 188 3.2 4.8 0.00 0.00 0.20 77 1016.4
20260901022923 -17 260 4.8 8.0 0.00 0.00 0.20 75 1016.7
20260901022603 -17 236 12.9 14.5 0.00 0.00 0.20 76 1016.4
20260901021924 -17 246 6.4 11.3 0.00 0.00 0.20 76 1016.2
20260901021603 -17 253 3.2 6.4 0.00 0.00 0.20 79 1016.4
20260901021243 -17 197 14.5 20.9 0.00 0.00 0.20 77 1016.5
20260901020923 -17 210 3.2 3.2 0.00 0.00 0.20 79 1016.4
20260901020602 -17 204 3.2 9.7 0.00 0.00 0.20 79 1016.2
20260901020242 -17 0 0.0 0.0 0.00 0.00 0.00 14.5
20260901015922 -17 244 6.4 9.7 0.00 0.00 0.20 81 1016.1
20260901015602 -17 184 3.2 4.8 0.00 0.00 0.20 82 1016.2
20260901014924 -17 261 9.7 12.9 0.00 0.00 0.20 80 1016.0
20260901014602 -17 173 8.0 12.9 0.00 0.00 0.20 81 1015.7
20260901014243 -17 182 4.8 8.0 0.00 0.00 0.20 81 1015.8
20260901013923 -17 203 1.6 4.8 0.00 0.00 0.20 82 1016.1
20260901013601 -17 268 4.8 6.4 0.00 0.00 0.20 81 1015.8
20260901013241 -17 255 6.4 11.3 0.00 0.00 0.20 82 1015.9
20260901012921 -17 194 3.2 3.2 0.00 0.00 0.20 83 1015.9
20260901012601 -17 248 3.2 4.8 0.00 0.00 0.20 83 1015.6
20260901011923 -17 197 4.8 8.0 0.00 0.00 0.20 85 1015.8
20260901011602 -17 231 1.6 1.6 0.00 0.00 0.20 85 1015.6
20260901011242 -17 190 1.6 3.2 0.00 0.00 0.20 85 1015.9
20260901010922 -17 251 1.6 3.2 0.00 0.00 0.20 85 1015.7
20260901010601 -17 204 8.0 12.9 0.00 0.00 0.20 85 1015.4
20260901010241 -17 227 6.4 8.0 0.00 0.00 0.20 85 1015.4
20260901005920 -17 272 1.6 3.2 0.00 0.00 0.20 85 1015.5
20260901005600 -17 240 6.4 8.0 0.00 0.00 0.20 86 1015.6
20260901004921 -17 195 1.6 3.2 0.00 0.00 0.20 87 1015.4
20260901004600 -17 315 0.0 1.6 0.00 0.00 0.20 86 1015.3
20260901004241 -17 173 0.0 1.6 0.00 0.00 0.20 86 1015.3
20260901003921 -17 335 0.0 0.0 0.00 0.00 0.20 87 1015.3
20260901003600 -17 191 4.8 6.4 0.00 0.00 0.20 86 1015.2
20260901003240 -17 246 6.4 8.0 0.00 0.00 0.20 86 1015.5
20260901002920 -17 195 3.2 3.2 0.00 0.00 0.20 87 1015.2
20260901002559 -17 165 1.6 3.2 0.00 0.00 0.20 88 1015.2
20260901001922 -17 249 3.2 4.8 0.00 0.00 0.20 87 1015.1
20260901001601 -17 258 4.8 8.0 0.00 0.00 0.20 87 1015.1
20260901001241 -17 188 0.0 0.0 0.00 0.00 0.20 88 1014.9
20260901000921 -17 250 3.2 4.8 0.00 0.00 0.20 88 1015.0
20260901000559 -17 234 1.6 3.2 0.00 0.00 0.20 88 1014.9
20260901000241 -17 277 0.0 0.0 0.00 0.00 0.20 88 1014.8
20260831235919 -17 232 0.0 0.0 0.00 0.00 0.20 88 1015.0
20260831235559 -17 230 3.2 3.2 0.00 0.00 0.20 89 1014.8
20260831234921 -17 214 0.0 1.6 0.00 0.00 0.20 89 1014.9
20260831234600 -17 204 0.0 0.0 0.00 0.00 0.20 89 1014.7
20260831234239 -17 190 1.6 1.6 0.00 0.00 0.20 89 1014.6
20260831233919 -17 215 0.0 0.0 0.00 0.00 0.20 90 1014.8
20260831233558 -17 207 0.0 1.6 0.00 0.00 0.20 90 1014.7
20260831233239 -17 226 4.8 6.4 0.00 0.00 0.20 90 1014.6
20260831232918 -17 230 1.6 4.8 0.00 0.00 0.20 90 1014.7
20260831232558 -17 192 0.0 0.0 0.00 0.00 0.20 90 1014.6
20260831231919 -17 273 0.0 0.0 0.00 0.00 0.20 90 1014.7
20260831231558 -17 171 0.0 1.6 0.00 0.00 0.20 90 1014.6
20260831231238 -17 216 0.0 1.6 0.00 0.00 0.20 90 1014.7
20260831230918 -17 180 0.0 0.0 0.00 0.00 0.20 90 1014.6
20260831230558 -17 215 1.6 3.2 0.00 0.00 0.20 90 1014.7
20260831230238 -17 198 1.6 3.2 0.00 0.00 0.20 91 1014.6
20260831225918 -17 188 0.0 1.6 0.00 0.00 0.20 91 1014.4
20260831225600 -17 203 1.6 1.6 0.00 0.00 0.20 90 1014.7
20260831224920 -17 222 1.6 3.2 0.00 0.00 0.20 91 1014.8
20260831224558 -17 190 0.0 0.0 0.00 0.00 0.20 91 1014.8
20260831224238 -17 175 0.0 0.0 0.00 0.00 0.20 91 1014.5
20260831223919 -17 173 1.6 3.2 0.00 0.00 0.20 91 1014.5
20260831223557 -17 169 0.0 0.0 0.00 0.00 0.20 91 1014.6
20260831223237 -17 172 0.0 1.6 0.00 0.00 0.20 90 1014.7
20260831222917 -17 214 1.6 1.6 0.00 0.00 0.20 90 1014.6
20260831222557 -17 182 1.6 3.2 0.00 0.00 0.20 91 1014.6
20260831221920 -17 209 0.0 0.0 0.00 0.00 0.20 91 1014.8
20260831221559 -17 194 0.0 0.0 0.00 0.00 0.20 91 1014.7
20260831221239 -17 199 0.0 1.6 0.00 0.00 0.20 91 1014.8
20260831220918 -17 201 1.6 3.2 0.00 0.00 0.20 91 1014.5
20260831220558 -17 195 0.0 0.0 0.00 0.00 0.20 91 1014.6
20260831220238 -17 201 0.0 0.0 0.00 0.00 0.20 91 1014.7
20260831215918 -17 172 0.0 0.0 0.00 0.03 0.20 91 1014.5
20260831215558 -17 194 0.0 0.0 0.00 0.03 0.20 91 1014.5
20260831214917 -17 167 0.0 0.0 0.00 0.03 0.20 90 1014.6
20260831214556 -17 207 0.0 0.0 0.00 0.03 0.20 90 1014.7
20260831214236 -17 308 0.0 0.0 0.00 0.03 0.20 90 1014.7
20260831213916 -17 302 0.0 0.0 0.00 0.03 0.20 90 1014.4
20260831213556 -17 299 0.0 0.0 0.00 0.03 0.20 90 1014.6
20260831213236 -17 288 0.0 0.0 0.00 0.03 0.20 90 1014.4
20260831212915 -17 178 0.0 0.0 0.00 0.03 0.20 90 1014.4
20260831212555 -17 173 0.0 0.0 0.00 0.03 0.20 90 1014.4
20260831211918 -17 184 0.0 1.6 0.00 0.03 0.20 91 1014.3
20260831211557 -17 207 0.0 0.0 0.00 0.03 0.20 91 1014.3
20260831211237 -17 173 0.0 0.0 0.18 0.03 0.20 91 1014.1
20260831210917 -17 199 0.0 1.6 0.18 0.03 0.20 91 1014.3
20260831210555 -17 168 0.0 0.0 0.18 0.03 0.20 91 1014.4
20260831210236 -17 204 1.6 3.2 0.00 0.00 0.18 92 1014.2
20260831205914 -17 175 0.0 0.0 0.00 0.00 0.18 92 1014.4
20260831205554 -17 160 0.0 0.0 0.00 0.00 0.18 92 1014.1
20260831204916 -17 170 0.0 0.0 0.00 0.00 0.18 93 1014.2
20260831204555 -17 165 0.0 0.0 0.00 0.00 0.18 93 1014.1
20260831204235 -17 168 0.0 0.0 0.00 0.00 0.18 93 1013.9
20260831203915 -17 170 0.0 0.0 0.00 0.00 0.18 93 1014.1
20260831203554 -17 343 0.0 0.0 0.00 0.00 0.18 93 1014.0
20260831203234 -17 353 0.0 0.0 0.00 0.00 0.18 93 1014.2
20260831202914 -17 347 0.0 0.0 0.00 0.00 0.18 93 1014.4
20260831202556 -17 353 0.0 0.0 0.00 0.00 0.18 93 1014.0
20260831201915 -17 5 0.0 0.0 0.00 0.00 0.18 93 1014.1
20260831201554 -17 351 0.0 0.0 0.00 0.00 0.18 93 1014.1
20260831201234 -17 0 0.0 0.0 0.00 0.00 0.18 92 1014.4
20260831200914 -17 353 0.0 0.0 0.00 0.00 0.18 92 1014.0
20260831200553 -17 343 0.0 0.0 0.00 0.00 0.18 92 1014.0
20260831200233 -17 339 0.0 0.0 0.00 0.00 0.18 91 1014.2
20260831195913 -17 331 0.0 0.0 0.00 0.08 0.18 91 1014.1
20260831195553 -17 336 0.0 0.0 0.00 0.08 0.18 91 1014.0
20260831194914 -17 184 0.0 0.0 0.00 0.08 0.18 91 1014.2
20260831194553 -17 182 0.0 0.0 0.00 0.08 0.18 91 1014.3
20260831194234 -17 267 0.0 0.0 0.00 0.08 0.18 91 1014.2
20260831193914 -17 306 0.0 0.0 0.00 0.08 0.18 91 1014.6
20260831193553 -17 270 0.0 1.6 0.18 0.08 0.18 92 1014.5
20260831193233 -17 172 0.0 0.0 0.18 0.08 0.18 91 1014.4
20260831192912 -17 307 0.0 0.0 0.18 0.08 0.18 91 1014.3
20260831192553 -17 163 0.0 0.0 0.00 0.05 0.15 92 1014.4
20260831191913 -17 159 0.0 0.0 0.18 0.05 0.15 92 1014.4
20260831191553 -17 162 0.0 0.0 0.18 0.05 0.15 92 1014.6
20260831191232 -17 306 0.0 0.0 0.18 0.03 0.10 93 1014.4
20260831190912 -17 8 0.0 0.0 0.18 0.03 0.10 93 1014.7
20260831190552 -17 353 0.0 0.0 0.18 0.03 0.10 93 1014.5
20260831190232 -17 348 0.0 0.0 0.00 0.00 0.08 93 1014.6
20260831185911 -17 3 0.0 0.0 0.00 0.03 0.08 93 1014.7
20260831185551 -17 358 0.0 0.0 0.00 0.03 0.08 93 1014.8
20260831184914 -17 349 0.0 0.0 0.00 0.03 0.08 93 1014.7
20260831184553 -17 352 0.0 0.0 0.00 0.03 0.08 93 1014.6
20260831184233 -17 351 0.0 0.0 0.00 0.03 0.08 92 1014.7
20260831183913 -17 351 0.0 0.0 0.00 0.03 0.08 92 1014.8
20260831183551 -17 349 0.0 0.0 0.00 0.03 0.08 92 1014.7
20260831183233 -17 347 0.0 0.0 0.00 0.03 0.08 92 1014.8
20260831182911 -17 343 0.0 0.0 0.18 0.03 0.08 91 1014.9
20260831182551 -17 340 0.0 0.0 0.18 0.03 0.08 91 1014.7
20260831181912 -17 338 0.0 0.0 0.00 0.00 0.05 91 1014.8
20260831181551 -17 340 0.0 0.0 0.00 0.00 0.05 91 1014.7
20260831181231 -17 269 0.0 0.0 0.00 0.00 0.05 91 1014.9
20260831180914 -17 338 0.0 0.0 0.00 0.00 0.05 91 1015.0
20260831180550 -17 338 0.0 0.0 0.00 0.00 0.05 91 1015.3
20260831180230 -17 325 0.0 0.0 0.00 0.00 0.05 91 1015.0
20260831175911 -17 340 0.0 0.0 0.00 0.05 0.05 92 1015.1
20260831175551 -17 340 0.0 0.0 0.00 0.05 0.05 91 1015.3
20260831174912 -17 333 0.0 0.0 0.18 0.05 0.05 90 1015.3
20260831174551 -17 329 0.0 0.0 0.18 0.05 0.05 90 1015.4
20260831174230 -17 309 0.0 1.6 0.18 0.05 0.05 90 1015.7
20260831173911 -17 312 0.0 0.0 0.00 0.03 0.03 90 1015.7
20260831173550 -17 267 3.2 3.2 0.00 0.03 0.03 90 1015.5
20260831173230 -17 253 0.0 1.6 0.00 0.03 0.03 91 1015.5
20260831172909 -17 272 1.6 1.6 0.00 0.03 0.03 91 1015.5
20260831172549 -17 327 0.0 0.0 0.00 0.03 0.03 91 1015.4
20260831171911 -17 358 0.0 0.0 0.00 0.03 0.03 92 1015.5
20260831171550 -17 354 0.0 0.0 0.00 0.03 0.03 91 1015.7
20260831171230 -17 343 0.0 0.0 0.18 0.03 0.03 90 1015.7
20260831170909 -17 340 0.0 0.0 0.18 0.03 0.03 90 1015.6
20260831170549 -17 327 0.0 0.0 0.18 0.03 0.03 90 1015.6
20260831170229 -17 0 0.0 0.0 0.00 0.00 0.00 14.5
20260831165909 -17 348 0.0 0.0 0.00 0.08 0.15 91 1015.7
20260831165549 -17 320 1.6 1.6 0.00 0.08 0.15 90 1015.9
20260831164910 -17 353 0.0 0.0 0.18 0.08 0.15 90 1015.9
20260831164550 -17 330 0.0 0.0 0.00 0.05 0.10 90 1015.9
20260831164229 -17 303 0.0 0.0 0.18 0.05 0.10 90 1016.1
20260831163909 -17 202 3.2 6.4 0.18 0.05 0.10 89 1016.1
20260831163549 -17 331 0.0 0.0 0.18 0.05 0.10 89 1016.0
20260831163229 -17 242 3.2 3.2 0.00 0.03 0.08 89 1016.0
20260831162909 -17 225 1.6 3.2 0.00 0.03 0.08 90 1016.0
20260831162549 -17 197 0.0 1.6 0.00 0.03 0.08 90 1016.1
20260831161910 -17 345 0.0 0.0 0.18 0.03 0.08 90 1016.0
20260831161549 -17 331 0.0 0.0 0.18 0.03 0.08 90 1015.8
20260831161229 -17 318 1.6 1.6 0.00 0.00 0.05 89 1016.2
20260831160909 -17 315 1.6 1.6 0.00 0.00 0.05 89 1016.0
20260831160548 -17 348 0.0 0.0 0.00 0.00 0.05 89 1016.0
20260831160229 -17 316 0.0 0.0 0.00 0.00 0.05 89 1016.0
20260831155908 -17 336 0.0 1.6 0.00 0.05 0.05 89 1016.0
20260831155548 -17 347 0.0 3.2 0.00 0.05 0.05 89 1016.1
20260831154910 -17 237 4.8 8.0 0.00 0.05 0.05 88 1016.1
20260831154549 -17 303 0.0 0.0 0.00 0.05 0.05 89 1016.1
20260831154229 -17 336 0.0 1.6 0.00 0.05 0.05 88 1016.2
20260831153909 -17 279 3.2 4.8 0.18 0.05 0.05 88 1016.4
20260831153547 -17 295 3.2 3.2 0.18 0.05 0.05 88 1016.4
20260831153228 -17 334 1.6 3.2 0.18 0.05 0.05 88 1016.2
20260831152907 -17 342 1.6 1.6 0.00 0.03 0.03 88 1016.3
20260831152547 -17 333 3.2 3.2 0.00 0.03 0.03 87 1016.3
20260831151908 -17 297 3.2 4.8 0.18 0.03 0.03 87 1016.1
20260831151547 -17 191 1.6 3.2 0.18 0.03 0.03 86 1016.0
20260831151227 -17 290 0.0 0.0 0.00 0.00 0.00 85 1016.1
20260831150907 -17 182 4.8 4.8 0.00 0.00 0.00 84 1016.1
20260831150547 -17 253 4.8 8.0 0.00 0.00 0.00 84 1016.1
20260831150226 -17 295 3.2 6.4 0.00 0.00 0.00 84 1015.9
20260831145906 -17 339 3.2 4.8 0.00 0.00 0.00 83 1016.0
20260831145546 -17 270 8.0 11.3 0.00 0.00 0.00 83 1015.8
20260831144907 -17 253 3.2 6.4 0.00 0.00 0.00 81 1015.8
20260831144546 -17 204 0.0 3.2 0.00 0.00 0.00 81 1015.6
20260831144226 -17 257 1.6 3.2 0.00 0.00 0.00 81 1015.8
20260831143906 -17 189 8.0 12.9 0.00 0.00 0.00 82 1015.8
20260831143546 -17 244 6.4 8.0 0.00 0.00 0.00 81 1015.5
20260831143225 -17 162 1.6 3.2 0.00 0.00 0.00 81 1015.6
20260831142906 -17 224 6.4 8.0 0.00 0.00 0.00 80 1015.2
20260831142546 -17 231 6.4 11.3 0.00 0.00 0.00 81 1015.4
20260831141907 -17 225 8.0 9.7 0.00 0.00 0.00 81 1015.4
20260831141546 -17 200 4.8 8.0 0.00 0.00 0.00 83 1015.4
20260831141226 -17 316 0.0 3.2 0.00 0.00 0.00 83 1015.1
20260831140906 -17 180 3.2 4.8 0.00 0.00 0.00 84 1015.2
20260831140545 -17 251 3.2 3.2 0.00 0.00 0.00 84 1014.9
20260831140225 -17 170 0.0 0.0 0.00 0.00 0.00 84 1014.7
20260831135905 -17 222 0.0 1.6 0.00 0.00 0.00 85 1014.9
20260831135545 -17 169 1.6 3.2 0.00 0.00 0.00 84 1014.8
20260831134906 -17 243 1.6 1.6 0.00 0.00 0.00 84 1014.7
20260831134545 -17 266 0.0 3.2 0.00 0.00 0.00 83 1014.8
20260831134225 -17 228 0.0 1.6 0.00 0.00 0.00 83 1014.7
20260831133906 -17 187 0.0 1.6 0.00 0.00 0.00 82 1014.7
20260831133544 -17 245 1.6 4.8 0.00 0.00 0.00 82 1014.5
20260831133224 -17 170 3.2 6.4 0.00 0.00 0.00 82 1014.6
20260831132904 -17 262 3.2 6.4 0.00 0.00 0.00 82 1014.4
20260831132544 -17 170 1.6 1.6 0.00 0.00 0.00 83 1014.5
20260831131905 -17 246 6.4 9.7 0.00 0.00 0.00 82 1014.5
20260831131544 -17 275 3.2 3.2 0.00 0.00 0.00 83 1014.3
20260831131224 -17 241 1.6 3.2 0.00 0.00 0.00 84 1014.4
20260831130904 -17 230 4.8 8.0 0.00 0.00 0.00 83 1014.3
20260831130543 -17 200 1.6 1.6 0.00 0.00 0.00 84 1014.2
20260831130223 -17 218 6.4 8.0 0.00 0.00 0.00 84 1014.3
20260831125903 -17 233 3.2 4.8 0.00 0.00 0.00 84 1014.0
20260831125543 -17 233 3.2 4.8 0.00 0.00 0.00 84 1014.0
20260831124905 -17 227 3.2 6.4 0.00 0.00 0.00 84 1014.1
20260831124544 -17 196 4.8 8.0 0.00 0.00 0.00 83 1014.0
20260831124224 -17 259 6.4 11.3 0.00 0.00 0.00 83 1014.2
20260831123904 -17 298 0.0 1.6 0.00 0.00 0.00 82 1014.1
20260831123543 -17 194 1.6 3.2 0.00 0.00 0.00 82 1013.9
20260831123223 -17 282 3.2 3.2 0.00 0.00 0.00 82 1013.9
20260831122903 -17 178 4.8 6.4 0.00 0.00 0.00 82 1013.8
20260831122543 -17 178 4.8 6.4 0.00 0.00 0.00 82 1013.8
20260831121904 -17 5 0.0 1.6 0.00 0.00 0.00 82 1013.5
20260831121543 -17 290 3.2 3.2 0.00 0.00 0.00 82 1013.6
20260831121223 -17 236 6.4 8.0 0.00 0.00 0.00 82 1013.7
20260831120903 -17 223 4.8 8.0 0.00 0.00 0.00 83 1013.6
20260831120542 -17 175 3.2 3.2 0.00 0.00 0.00 84 1013.8
20260831120222 -17 299 0.0 0.0 0.00 0.00 0.00 84 1013.5
20260831115902 -17 188 3.2 3.2 0.00 0.00 0.00 84 1013.5
20260831115542 -17 245 4.8 6.4 0.00 0.00 0.00 84 1013.5
20260831114903 -17 342 4.8 8.0 0.00 0.00 0.00 84 1013.2
20260831114542 -17 187 1.6 3.2 0.00 0.00 0.00 84 1013.4
20260831114222 -17 197 4.8 8.0 0.00 0.00 0.00 84 1013.3
20260831113902 -17 148 1.6 1.6 0.00 0.00 0.00 84 1013.3
20260831113542 -17 119 3.2 4.8 0.00 0.00 0.00 84 1013.2
20260831113221 -17 233 1.6 3.2 0.00 0.00 0.00 83 1013.2
20260831112902 -17 189 3.2 8.0 0.00 0.00 0.00 83 1013.1
20260831112541 -17 317 3.2 3.2 0.00 0.00 0.00 82 1013.1
20260831111903 -17 250 4.8 6.4 0.00 0.00 0.00 81 1013.1
20260831111542 -17 269 4.8 8.0 0.00 0.00 0.00 81 1013.2
20260831111222 -17 167 0.0 1.6 0.00 0.00 0.00 81 1013.1
20260831110902 -17 261 4.8 8.0 0.00 0.00 0.00 80 1013.1
20260831110541 -17 232 3.2 9.7 0.00 0.00 0.00 81 1013.5
20260831110221 -17 250 6.4 12.9 0.00 0.00 0.00 81 1013.2
20260831105900 -17 154 4.8 6.4 0.00 0.00 0.00 82 1013.1
20260831105540 -17 342 3.2 3.2 0.00 0.00 0.00 82 1013.1
20260831104901 -17 237 6.4 8.0 0.00 0.00 0.00 82 1013.2
20260831104541 -17 257 3.2 4.8 0.00 0.00 0.00 82 1013.1
20260831104221 -17 247 8.0 12.9 0.00 0.00 0.00 82 1013.1
20260831103901 -17 226 8.0 11.3 0.00 0.00 0.00 82 1013.0
20260831103540 -17 229 3.2 4.8 0.00 0.00 0.00 81 1013.0
20260831103220 -17 245 4.8 8.0 0.00 0.00 0.00 81 1012.9
20260831102900 -17 223 4.8 8.0 0.00 0.00 0.00 81 1012.9
20260831102540 -17 240 9.7 12.9 0.00 0.00 0.00 81 1012.8
20260831101900 -17 252 6.4 11.3 0.00 0.00 0.00 81 1012.9
20260831101540 -17 249 11.3 19.3 0.00 0.00 0.00 81 1012.8
20260831101220 -17 51 1.6 3.2 0.00 0.00 0.00 81 1012.9
20260831100900 -17 237 4.8 11.3 0.00 0.00 0.00 81 1012.7
20260831100539 -17 206 4.8 9.7 0.00 0.00 0.00 81 1012.6
20260831100219 -17 248 11.3 16.1 0.00 0.00 0.00 80 1012.6
20260831095859 -17 138 8.0 12.9 0.00 0.00 0.00 81 1012.7
20260831095539 -17 213 4.8 8.0 0.00 0.00 0.00 81 1012.5
20260831094900 -17 212 4.8 6.4 0.00 0.00 0.00 80 1012.6
20260831094539 -17 181 4.8 8.0 0.00 0.00 0.00 80 1012.5
20260831094219 -17 229 4.8 8.0 0.00 0.00 0.00 80 1012.3
20260831093859 -17 238 8.0 14.5 0.00 0.00 0.00 79 1012.4
20260831093539 -17 224 12.9 14.5 0.00 0.00 0.00 78 1012.3
20260831093219 -17 195 8.0 14.5 0.00 0.00 0.00 78 1012.2
20260831092858 -17 208 17.7 27.4 0.00 0.00 0.00 78 1012.6
20260831092538 -17 197 4.8 8.0 0.00 0.00 0.00 79 1012.3
20260831091859 -17 267 9.7 14.5 0.00 0.00 0.00 79 1012.4
20260831091539 -17 161 6.4 9.7 0.00 0.00 0.00 79 1012.6
20260831091219 -17 232 8.0 11.3 0.00 0.00 0.00 79 1012.3
20260831090859 -17 204 8.0 11.3 0.00 0.00 0.00 79 1012.2
20260831090538 -17 243 6.4 9.7 0.00 0.00 0.00 80 1012.5
20260831090218 -17 216 17.7 25.7 0.00 0.00 0.00 78 1012.3
20260831085858 -17 261 4.8 6.4 0.00 0.00 0.00 79 1012.2
20260831085538 -17 223 9.7 16.1 0.00 0.00 0.00 78 1012.2
20260831084859 -17 261 8.0 14.5 0.00 0.00 0.00 78 1012.1
20260831084538 -17 239 16.1 22.5 0.00 0.00 0.00 78 1012.4
20260831084218 -17 232 17.7 24.1 0.00 0.00 0.00 78 1012.4
20260831083858 -17 243 8.0 12.9 0.00 0.00 0.00 78 1012.2
20260831083537 -17 212 6.4 12.9 0.00 0.00 0.00 77 1012.1
20260831083217 -17 214 9.7 16.1 0.00 0.00 0.00 77 1012.4
20260831082857 -17 191 3.2 6.4 0.00 0.00 0.00 77 1012.5
20260831082537 -17 162 1.6 3.2 0.00 0.00 0.00 77 1012.5
20260831081859 -17 279 3.2 3.2 0.00 0.00 0.00 77 1012.4
20260831081537 -17 232 6.4 8.0 0.00 0.00 0.00 77 1012.4
20260831081218 -17 210 9.7 12.9 0.00 0.00 0.00 74 1012.4
20260831080858 -17 237 8.0 9.7 0.00 0.00 0.00 74 1012.4
20260831080536 -17 168 6.4 8.0 0.00 0.00 0.00 75 1012.2
20260831080216 -17 227 16.1 20.9 0.00 0.00 0.00 74 1012.5
20260831075856 -17 237 8.0 9.7 0.00 0.00 0.00 72 1012.7
20260831075536 -17 175 4.8 6.4 0.00 0.00 0.00 73 1012.6
20260831074858 -17 210 16.1 27.4 0.00 0.00 0.00 71 1012.7
20260831074538 -17 239 6.4 8.0 0.00 0.00 0.00 71 1012.5
20260831074217 -17 226 9.7 12.9 0.00 0.00 0.00 72 1012.6
20260831073858 -17 203 11.3 19.3 0.00 0.00 0.00 72 1012.6
20260831073536 -17 160 11.3 12.9 0.00 0.00 0.00 73 1012.6
20260831073217 -17 224 6.4 11.3 0.00 0.00 0.00 74 1012.7
20260831072855 -17 225 19.3 29.0 0.00 0.00 0.00 73 1012.8
20260831072536 -17 230 14.5 24.1 0.00 0.00 0.00 72 1012.7
20260831071857 -17 230 8.0 9.7 0.00 0.00 0.00 70 1012.7
20260831071536 -17 264 8.0 9.7 0.00 0.00 0.00 71 1012.6
20260831071216 -17 244 11.3 14.5 0.00 0.00 0.00 70 1012.9
20260831070856 -17 163 4.8 6.4 0.00 0.00 0.00 71 1012.7
20260831070535 -17 226 8.0 11.3 0.00 0.00 0.00 71 1012.8
20260831070215 -17 267 19.3 27.4 0.00 0.00 0.00 70 1012.8
20260831065855 -17 254 8.0 17.7 0.00 0.00 0.00 72 1012.9
20260831065535 -17 224 11.3 17.7 0.00 0.00 0.00 72 1013.0
20260831064856 -17 230 12.9 17.7 0.00 0.00 0.00 70 1012.9
20260831064535 -17 295 3.2 11.3 0.00 0.00 0.00 70 1013.1
20260831064215 -17 234 12.9 20.9 0.00 0.00 0.00 71 1013.1
20260831063855 -17 270 9.7 12.9 0.00 0.00 0.00 70 1012.9
20260831063534 -17 250 8.0 12.9 0.00 0.00 0.00 68 1013.0
20260831063214 -17 210 9.7 16.1 0.00 0.00 0.00 69 1013.2
20260831062854 -17 260 14.5 19.3 0.00 0.00 0.00 68 1013.0
20260831062534 -17 239 8.0 14.5 0.00 0.00 0.00 70 1013.2
20260831061855 -17 218 8.0 9.7 0.00 0.00 0.00 72 1013.2
20260831061534 -17 254 9.7 12.9 0.00 0.00 0.00 71 1013.0
20260831061214 -17 231 9.7 17.7 0.00 0.00 0.00 70 1013.3
20260831060855 -17 156 9.7 16.1 0.00 0.00 0.00 70 1013.2
20260831060533 -17 226 17.7 22.5 0.00 0.00 0.00 70 1013.1
20260831060213 -17 183 8.0 12.9 0.00 0.00 0.00 71 1013.6
20260831055853 -17 294 12.9 22.5 0.00 0.00 0.00 70 1013.4
20260831055533 -17 218 9.7 17.7 0.00 0.00 0.00 70 1013.4
20260831054855 -17 164 6.4 9.7 0.00 0.00 0.00 71 1013.7
20260831054533 -17 199 9.7 12.9 0.00 0.00 0.00 71 1013.9
20260831054214 -17 192 16.1 22.5 0.00 0.00 0.00 69 1014.0
20260831053853 -17 222 16.1 27.4 0.00 0.00 0.00 70 1013.8
20260831053533 -17 261 6.4 8.0 0.00 0.00 0.00 73 1013.9
20260831053213 -17 237 16.1 22.5 0.00 0.00 0.00 72 1014.2
20260831052853 -17 194 6.4 9.7 0.00 0.00 0.00 73 1014.4
20260831052533 -17 197 8.0 12.9 0.00 0.00 0.00 73 1014.3
20260831051533 -17 247 9.7 14.5 0.00 0.00 0.00 72 1014.4
20260831051213 -17 231 12.9 20.9 0.00 0.00 0.00 73 1014.4
20260831050853 -17 209 9.7 16.1 0.00 0.00 0.00 71 1014.5
20260831050532 -17 231 11.3 16.1 0.00 0.00 0.00 71 1014.5
20260831050212 -17 75 6.4 9.7 0.00 0.00 0.00 73 1014.6
20260831045852 -17 237 9.7 12.9 0.00 0.00 0.00 72 1014.8
20260831045532 -17 236 9.7 12.9 0.00 0.00 0.00 71 1014.5
20260831044853 -17 261 12.9 17.7 0.00 0.00 0.00 71 1014.7
20260831044532 -17 208 9.7 22.5 0.00 0.00 0.00 72 1014.6